EZY56N EGKK-EGPH

Flight info

Callsign EZY56N
Flight time 0h 59m
Altitude 36000
Route LAM L10 BPK UN601 RIBEL DCT INPIP
Aircraft A320/M-SDE2E3FGHIRWXY/LB1

Departure

Time 2026-04-24 21:31
Airport London Gatwick Airport (EGKK)

Arrival

Time 2026-04-24 22:31
Airport Edinburgh Airport (EGPH)
Time Latitude Longitude Altitude Speed Heading
2026-04-24 20:59 51.15888 -0.17315 213 ft 0 kts 348°
2026-04-24 21:17 51.15887 -0.17315 213 ft 1 kts 348°
2026-04-24 21:17 51.15863 -0.17307 210 ft 4 kts 348°
2026-04-24 21:17 51.15837 -0.17298 205 ft 4 kts 345°
2026-04-24 21:18 51.15812 -0.17284 216 ft 4 kts 326°
2026-04-24 21:18 51.15798 -0.17258 211 ft 3 kts 263°
2026-04-24 21:18 51.15801 -0.17225 213 ft 4 kts 258°
2026-04-24 21:18 51.15806 -0.17185 213 ft 2 kts 258°
2026-04-24 21:19 51.15806 -0.17184 213 ft 0 kts 258°
2026-04-24 21:22 51.15805 -0.17193 212 ft 5 kts 258°
2026-04-24 21:22 51.15791 -0.17296 212 ft 12 kts 257°
2026-04-24 21:22 51.15774 -0.17418 210 ft 11 kts 257°
2026-04-24 21:23 51.15757 -0.17523 208 ft 9 kts 258°
2026-04-24 21:23 51.15744 -0.17622 210 ft 11 kts 258°
2026-04-24 21:23 51.15725 -0.17784 204 ft 16 kts 257°
2026-04-24 21:23 51.15698 -0.17967 207 ft 18 kts 257°
2026-04-24 21:24 51.15672 -0.18157 208 ft 16 kts 257°
2026-04-24 21:24 51.15646 -0.18342 206 ft 18 kts 257°
2026-04-24 21:24 51.15620 -0.18530 206 ft 15 kts 257°
2026-04-24 21:24 51.15596 -0.18703 208 ft 15 kts 257°
2026-04-24 21:25 51.15533 -0.18818 207 ft 16 kts 178°
2026-04-24 21:25 51.15424 -0.18782 205 ft 16 kts 167°
2026-04-24 21:25 51.15312 -0.18744 204 ft 17 kts 167°
2026-04-24 21:25 51.15202 -0.18705 207 ft 16 kts 167°
2026-04-24 21:26 51.15130 -0.18792 205 ft 16 kts 257°
2026-04-24 21:26 51.15097 -0.18960 207 ft 16 kts 256°
2026-04-24 21:26 51.15072 -0.19143 213 ft 18 kts 258°
2026-04-24 21:26 51.15045 -0.19340 204 ft 19 kts 258°
2026-04-24 21:27 51.15018 -0.19551 209 ft 20 kts 258°
2026-04-24 21:27 51.14989 -0.19778 204 ft 22 kts 258°
2026-04-24 21:27 51.14962 -0.19946 204 ft 16 kts 256°
2026-04-24 21:27 51.14936 -0.20123 212 ft 17 kts 257°
2026-04-24 21:28 51.14912 -0.20313 213 ft 17 kts 257°
2026-04-24 21:28 51.14886 -0.20503 203 ft 18 kts 257°
2026-04-24 21:28 51.14857 -0.20708 203 ft 20 kts 257°
2026-04-24 21:28 51.14828 -0.20922 211 ft 20 kts 258°
2026-04-24 21:29 51.14796 -0.21135 214 ft 16 kts 247°
2026-04-24 21:29 51.14765 -0.21317 208 ft 18 kts 258°
2026-04-24 21:29 51.14691 -0.21392 208 ft 15 kts 161°
2026-04-24 21:29 51.14620 -0.21327 207 ft 8 kts 158°
2026-04-24 21:30 51.14550 -0.21277 210 ft 20 kts 142°
2026-04-24 21:30 51.14536 -0.21055 208 ft 22 kts 76°
2026-04-24 21:30 51.14590 -0.20664 212 ft 67 kts 77°
2026-04-24 21:30 51.14738 -0.19588 205 ft 129 kts 77°
2026-04-24 21:31 51.14968 -0.17943 264 ft 170 kts 77°
2026-04-24 21:31 51.15248 -0.16125 938 ft 167 kts 75°
2026-04-24 21:31 51.15552 -0.14330 1576 ft 170 kts 74°
2026-04-24 21:31 51.15868 -0.12478 2125 ft 176 kts 75°
2026-04-24 21:32 51.16191 -0.10574 2701 ft 180 kts 75°
2026-04-24 21:32 51.16495 -0.08582 3120 ft 195 kts 78°
2026-04-24 21:32 51.16931 -0.06421 3373 ft 217 kts 62°
2026-04-24 21:32 51.17800 -0.04342 3692 ft 237 kts 54°
2026-04-24 21:33 51.18819 -0.02140 4136 ft 258 kts 53°
2026-04-24 21:33 51.19548 -0.00601 4522 ft 267 kts 52°
2026-04-24 21:33 51.21070 0.02575 4726 ft 270 kts 52°
2026-04-24 21:33 51.22215 0.04943 4744 ft 270 kts 52°
2026-04-24 21:34 51.23359 0.07310 4745 ft 269 kts 52°
2026-04-24 21:34 51.24457 0.09732 4745 ft 270 kts 60°
2026-04-24 21:34 51.25183 0.12480 4745 ft 270 kts 75°
2026-04-24 21:34 51.25552 0.15418 4745 ft 270 kts 79°
2026-04-24 21:35 51.25898 0.18366 4745 ft 270 kts 79°
2026-04-24 21:35 51.26247 0.21312 4751 ft 270 kts 79°
2026-04-24 21:35 51.26592 0.24218 4749 ft 270 kts 79°
2026-04-24 21:35 51.26941 0.27162 4745 ft 270 kts 79°
2026-04-24 21:36 51.27291 0.30110 4758 ft 271 kts 79°
2026-04-24 21:36 51.27957 0.32930 5481 ft 274 kts 56°
2026-04-24 21:36 51.29284 0.35088 6370 ft 276 kts 31°
2026-04-24 21:36 51.31082 0.36124 7225 ft 278 kts
2026-04-24 21:37 51.32997 0.35787 8022 ft 283 kts 341°
2026-04-24 21:37 51.34832 0.34631 8853 ft 284 kts 337°
2026-04-24 21:37 51.36665 0.33427 9680 ft 286 kts 337°
2026-04-24 21:37 51.38518 0.32208 10470 ft 290 kts 337°
2026-04-24 21:38 51.40394 0.30976 11239 ft 293 kts 337°
2026-04-24 21:38 51.42294 0.29733 11985 ft 296 kts 337°
2026-04-24 21:38 51.44214 0.28481 12720 ft 300 kts 337°
2026-04-24 21:38 51.46156 0.27216 13435 ft 303 kts 338°
2026-04-24 21:39 51.48120 0.25938 14127 ft 306 kts 338°
2026-04-24 21:39 51.50105 0.24645 14808 ft 309 kts 338°
2026-04-24 21:39 51.52110 0.23339 15464 ft 313 kts 338°
2026-04-24 21:39 51.54135 0.22023 16115 ft 316 kts 338°
2026-04-24 21:40 51.56183 0.20688 16744 ft 319 kts 338°
2026-04-24 21:40 51.58249 0.19340 17354 ft 322 kts 338°
2026-04-24 21:40 51.60334 0.17973 17959 ft 325 kts 337°
2026-04-24 21:40 51.61724 0.17055 18352 ft 327 kts 336°
2026-04-24 21:41 51.63717 0.15273 18921 ft 330 kts 323°
2026-04-24 21:41 51.65445 0.12800 19294 ft 340 kts 311°
2026-04-24 21:41 51.66853 0.09641 19426 ft 356 kts 302°
2026-04-24 21:41 51.68666 0.05068 19706 ft 373 kts 302°
2026-04-24 21:42 51.70085 0.01523 20166 ft 378 kts 302°
2026-04-24 21:42 51.71519 -0.02047 20670 ft 381 kts 303°
2026-04-24 21:42 51.72963 -0.05650 21159 ft 384 kts 303°
2026-04-24 21:42 51.74017 -0.08029 21482 ft 386 kts 309°
2026-04-24 21:43 51.75902 -0.11139 21944 ft 390 kts 320°
2026-04-24 21:43 51.78089 -0.13641 22399 ft 393 kts 329°
2026-04-24 21:43 51.80451 -0.15875 22849 ft 395 kts 329°
2026-04-24 21:43 51.82832 -0.18132 23292 ft 398 kts 329°
2026-04-24 21:44 51.85228 -0.20410 23728 ft 401 kts 329°
2026-04-24 21:44 51.87635 -0.22709 24136 ft 403 kts 329°
2026-04-24 21:44 51.90059 -0.25033 24546 ft 406 kts 329°
2026-04-24 21:44 51.92495 -0.27369 24948 ft 408 kts 329°
2026-04-24 21:45 51.94951 -0.29721 25322 ft 412 kts 329°
2026-04-24 21:45 51.97443 -0.32110 25452 ft 421 kts 329°
2026-04-24 21:45 51.99985 -0.34554 25580 ft 429 kts 329°
2026-04-24 21:45 52.02578 -0.37047 25708 ft 437 kts 329°
2026-04-24 21:46 52.05216 -0.39585 25834 ft 445 kts 329°
2026-04-24 21:46 52.07902 -0.42173 25957 ft 452 kts 329°
2026-04-24 21:46 52.10623 -0.44797 26087 ft 458 kts 329°
2026-04-24 21:46 52.13377 -0.47457 26214 ft 463 kts 329°
2026-04-24 21:47 52.16165 -0.50157 26338 ft 469 kts 329°
2026-04-24 21:47 52.18979 -0.52886 26467 ft 473 kts 329°
2026-04-24 21:47 52.21822 -0.55649 26597 ft 478 kts 329°
2026-04-24 21:47 52.24689 -0.58446 26716 ft 482 kts 329°
2026-04-24 21:48 52.27576 -0.61265 26842 ft 486 kts 329°
2026-04-24 21:48 52.30483 -0.64104 27014 ft 488 kts 329°
2026-04-24 21:48 52.33403 -0.66957 27278 ft 489 kts 329°
2026-04-24 21:48 52.36316 -0.69811 27583 ft 488 kts 329°
2026-04-24 21:49 52.39229 -0.72669 27901 ft 488 kts 329°
2026-04-24 21:49 52.42138 -0.75522 28216 ft 487 kts 329°
2026-04-24 21:49 52.45048 -0.78381 28518 ft 486 kts 329°
2026-04-24 21:49 52.47947 -0.81234 28824 ft 486 kts 329°
2026-04-24 21:50 52.50844 -0.84089 29143 ft 485 kts 329°
2026-04-24 21:50 52.53735 -0.86945 29459 ft 484 kts 329°
2026-04-24 21:50 52.56619 -0.89800 29771 ft 484 kts 329°
2026-04-24 21:50 52.59499 -0.92653 30070 ft 483 kts 328°
2026-04-24 21:51 52.62379 -0.95515 30363 ft 483 kts 328°
2026-04-24 21:51 52.65251 -0.98373 30668 ft 482 kts 328°
2026-04-24 21:51 52.68121 -1.01237 30971 ft 482 kts 328°
2026-04-24 21:51 52.70946 -1.04065 31260 ft 481 kts 328°
2026-04-24 21:52 52.73841 -1.06965 31559 ft 480 kts 328°
2026-04-24 21:52 52.76697 -1.09826 31856 ft 480 kts 328°
2026-04-24 21:52 52.79507 -1.12641 32145 ft 479 kts 328°
2026-04-24 21:52 52.82354 -1.15497 32431 ft 478 kts 328°
2026-04-24 21:53 52.85232 -1.18388 32719 ft 477 kts 328°
2026-04-24 21:53 52.88029 -1.21199 32983 ft 477 kts 328°
2026-04-24 21:53 52.90862 -1.24053 33269 ft 476 kts 328°
2026-04-24 21:53 52.93688 -1.26911 33538 ft 476 kts 328°
2026-04-24 21:54 52.96509 -1.29769 33795 ft 475 kts 328°
2026-04-24 21:54 52.99331 -1.32629 34057 ft 475 kts 328°
2026-04-24 21:54 53.02147 -1.35482 34318 ft 474 kts 328°
2026-04-24 21:54 53.04963 -1.38336 34583 ft 474 kts 328°
2026-04-24 21:55 53.07774 -1.41188 34842 ft 473 kts 328°
2026-04-24 21:55 53.10581 -1.44046 35105 ft 473 kts 328°
2026-04-24 21:55 53.13382 -1.46910 35343 ft 472 kts 328°
2026-04-24 21:55 53.16181 -1.49775 35569 ft 472 kts 328°
2026-04-24 21:56 53.18980 -1.52644 35795 ft 472 kts 328°
2026-04-24 21:56 53.21778 -1.55516 35966 ft 473 kts 328°
2026-04-24 21:56 53.24574 -1.58393 36012 ft 472 kts 328°
2026-04-24 21:57 53.30164 -1.64160 36009 ft 472 kts 328°
2026-04-24 21:57 53.35745 -1.69916 36009 ft 471 kts 328°
2026-04-24 21:58 53.41323 -1.75692 36010 ft 472 kts 328°
2026-04-24 21:58 53.46908 -1.81491 36010 ft 472 kts 328°
2026-04-24 21:59 53.52493 -1.87309 36009 ft 473 kts 328°
2026-04-24 21:59 53.58076 -1.93156 36008 ft 473 kts 328°
2026-04-24 22:00 53.63659 -1.99011 36008 ft 472 kts 328°
2026-04-24 22:00 53.69195 -2.04843 36008 ft 472 kts 328°
2026-04-24 22:01 53.74816 -2.10558 36008 ft 472 kts 334°
2026-04-24 22:01 53.80896 -2.14766 36008 ft 473 kts 338°
2026-04-24 22:02 53.87000 -2.18920 36015 ft 473 kts 338°
2026-04-24 22:02 53.93093 -2.23094 36018 ft 472 kts 338°
2026-04-24 22:03 53.99184 -2.27282 36021 ft 472 kts 338°
2026-04-24 22:03 54.05263 -2.31482 36021 ft 472 kts 338°
2026-04-24 22:04 54.11345 -2.35695 36021 ft 472 kts 338°
2026-04-24 22:04 54.14370 -2.37789 35652 ft 467 kts 338°
2026-04-24 22:04 54.17353 -2.39851 34790 ft 461 kts 338°
2026-04-24 22:04 54.20317 -2.41902 34301 ft 456 kts 338°
2026-04-24 22:05 54.23244 -2.43939 33664 ft 454 kts 338°
2026-04-24 22:05 54.26145 -2.45965 33143 ft 449 kts 338°
2026-04-24 22:05 54.29024 -2.47978 32668 ft 443 kts 338°
2026-04-24 22:05 54.31866 -2.49964 32044 ft 441 kts 338°
2026-04-24 22:06 54.34687 -2.51937 31556 ft 436 kts 338°
2026-04-24 22:06 54.37488 -2.53901 30991 ft 433 kts 337°
2026-04-24 22:06 54.40258 -2.55854 30494 ft 429 kts 337°
2026-04-24 22:06 54.43003 -2.57793 29999 ft 425 kts 337°
2026-04-24 22:07 54.45720 -2.59713 29519 ft 420 kts 337°
2026-04-24 22:07 54.48372 -2.61588 29048 ft 416 kts 337°
2026-04-24 22:07 54.51032 -2.63468 28593 ft 411 kts 337°
2026-04-24 22:07 54.53658 -2.65323 28135 ft 406 kts 337°
2026-04-24 22:08 54.56262 -2.67145 27689 ft 401 kts 338°
2026-04-24 22:08 54.58832 -2.68941 27237 ft 397 kts 337°
2026-04-24 22:08 54.61370 -2.70746 26787 ft 392 kts 337°
2026-04-24 22:08 54.63879 -2.72549 26337 ft 388 kts 337°
2026-04-24 22:09 54.66363 -2.74334 25884 ft 385 kts 337°
2026-04-24 22:09 54.68822 -2.76100 25436 ft 381 kts 337°
2026-04-24 22:09 54.71258 -2.77845 24982 ft 377 kts 337°
2026-04-24 22:09 54.73673 -2.79571 24535 ft 374 kts 337°
2026-04-24 22:10 54.76066 -2.81280 24089 ft 371 kts 337°
2026-04-24 22:10 54.78440 -2.82979 23633 ft 368 kts 337°
2026-04-24 22:10 54.80795 -2.84671 23186 ft 365 kts 337°
2026-04-24 22:10 54.83132 -2.86356 22730 ft 363 kts 337°
2026-04-24 22:11 54.85456 -2.88031 22284 ft 361 kts 337°
2026-04-24 22:11 54.87767 -2.89700 21830 ft 359 kts 337°
2026-04-24 22:11 54.90066 -2.91362 21380 ft 357 kts 337°
2026-04-24 22:11 54.92356 -2.93018 20931 ft 356 kts 337°
2026-04-24 22:12 54.94635 -2.94668 20478 ft 354 kts 337°
2026-04-24 22:12 54.96905 -2.96311 20030 ft 353 kts 337°
2026-04-24 22:12 54.99167 -2.97948 19577 ft 351 kts 337°
2026-04-24 22:12 55.01422 -2.99582 19128 ft 350 kts 337°
2026-04-24 22:13 55.03665 -3.01212 18675 ft 349 kts 337°
2026-04-24 22:13 55.05900 -3.02839 18224 ft 347 kts 337°
2026-04-24 22:13 55.08126 -3.04461 17774 ft 346 kts 337°
2026-04-24 22:13 55.10343 -3.06078 17323 ft 345 kts 337°
2026-04-24 22:14 55.12556 -3.07689 16870 ft 344 kts 337°
2026-04-24 22:14 55.14761 -3.09293 16422 ft 343 kts 337°
2026-04-24 22:14 55.16965 -3.10900 15971 ft 342 kts 337°
2026-04-24 22:14 55.19130 -3.12482 15527 ft 342 kts 337°
2026-04-24 22:15 55.21323 -3.14089 15076 ft 341 kts 337°
2026-04-24 22:15 55.23504 -3.15698 14626 ft 340 kts 337°
2026-04-24 22:15 55.25682 -3.17310 14175 ft 339 kts 336°
2026-04-24 22:15 55.27855 -3.18917 13716 ft 338 kts 337°
2026-04-24 22:16 55.30015 -3.20509 13394 ft 333 kts 337°
2026-04-24 22:16 55.32131 -3.22072 13148 ft 326 kts 337°
2026-04-24 22:16 55.34204 -3.23606 12893 ft 320 kts 337°
2026-04-24 22:16 55.36237 -3.25111 12638 ft 314 kts 337°
2026-04-24 22:17 55.38234 -3.26587 12388 ft 309 kts 337°
2026-04-24 22:17 55.40196 -3.28038 12137 ft 304 kts 336°
2026-04-24 22:17 55.42133 -3.29478 11883 ft 301 kts 336°
2026-04-24 22:17 55.44048 -3.30908 11637 ft 296 kts 336°
2026-04-24 22:18 55.45935 -3.32320 11383 ft 292 kts 336°
2026-04-24 22:18 55.47789 -3.33704 11139 ft 287 kts 336°
2026-04-24 22:18 55.49601 -3.35112 10882 ft 282 kts 330°
2026-04-24 22:18 55.51167 -3.37129 10633 ft 277 kts 319°
2026-04-24 22:19 55.52633 -3.39304 10382 ft 273 kts 320°
2026-04-24 22:19 55.54080 -3.41448 10128 ft 269 kts 320°
2026-04-24 22:19 55.55486 -3.43531 9913 ft 264 kts 320°
2026-04-24 22:19 55.56869 -3.45582 9785 ft 255 kts 319°
2026-04-24 22:20 55.58222 -3.47596 9660 ft 248 kts 319°
2026-04-24 22:20 55.59534 -3.49549 9536 ft 246 kts 320°
2026-04-24 22:20 55.60838 -3.51484 9321 ft 244 kts 320°
2026-04-24 22:20 55.62132 -3.53408 9017 ft 242 kts 319°
2026-04-24 22:21 55.63418 -3.55327 8698 ft 241 kts 319°
2026-04-24 22:21 55.64698 -3.57242 8379 ft 240 kts 319°
2026-04-24 22:21 55.65954 -3.59125 8069 ft 239 kts 319°
2026-04-24 22:21 55.67221 -3.61020 7752 ft 238 kts 319°
2026-04-24 22:22 55.68482 -3.62905 7437 ft 237 kts 319°
2026-04-24 22:22 55.69740 -3.64778 7118 ft 236 kts 320°
2026-04-24 22:22 55.71001 -3.66622 6801 ft 235 kts 320°
2026-04-24 22:22 55.72263 -3.68451 6485 ft 233 kts 320°
2026-04-24 22:23 55.73519 -3.70263 6175 ft 232 kts 320°
2026-04-24 22:23 55.74769 -3.72071 5828 ft 233 kts 320°
2026-04-24 22:23 55.76012 -3.73957 5391 ft 236 kts 316°
2026-04-24 22:23 55.77170 -3.75960 5267 ft 230 kts 314°
2026-04-24 22:24 55.78419 -3.77645 5137 ft 223 kts 338°
2026-04-24 22:24 55.79919 -3.77981 4978 ft 218 kts 10°
2026-04-24 22:24 55.81266 -3.76859 4755 ft 216 kts 42°
2026-04-24 22:24 55.82185 -3.74822 4565 ft 205 kts 59°
2026-04-24 22:25 55.82894 -3.72705 4246 ft 194 kts 59°
2026-04-24 22:25 55.83576 -3.70693 3967 ft 185 kts 58°
2026-04-24 22:25 55.84225 -3.68797 3788 ft 172 kts 58°
2026-04-24 22:25 55.84828 -3.67042 3687 ft 163 kts 58°
2026-04-24 22:26 55.85409 -3.65348 3502 ft 159 kts 58°
2026-04-24 22:26 55.85964 -3.63731 3316 ft 152 kts 58°
2026-04-24 22:26 55.86509 -3.62141 3111 ft 149 kts 58°
2026-04-24 22:26 55.87046 -3.60574 2913 ft 148 kts 58°
2026-04-24 22:27 55.87581 -3.59014 2721 ft 147 kts 58°
2026-04-24 22:27 55.88112 -3.57461 2517 ft 147 kts 58°
2026-04-24 22:27 55.88642 -3.55913 2330 ft 146 kts 58°
2026-04-24 22:27 55.89170 -3.54369 2135 ft 146 kts 58°
2026-04-24 22:28 55.89695 -3.52830 1942 ft 145 kts 58°
2026-04-24 22:28 55.90220 -3.51293 1744 ft 145 kts 58°
2026-04-24 22:28 55.90743 -3.49760 1556 ft 144 kts 58°
2026-04-24 22:28 55.91264 -3.48233 1365 ft 144 kts 58°
2026-04-24 22:29 55.92299 -3.45194 985 ft 143 kts 58°
2026-04-24 22:29 55.92803 -3.43665 788 ft 143 kts 59°
2026-04-24 22:29 55.93322 -3.42167 647 ft 142 kts 56°
2026-04-24 22:30 55.93853 -3.40677 407 ft 141 kts 59°
2026-04-24 22:30 55.94352 -3.39166 216 ft 141 kts 59°
2026-04-24 22:30 55.94850 -3.37689 114 ft 129 kts 58°
2026-04-24 22:30 55.95200 -3.36660 114 ft 76 kts 59°
2026-04-24 22:31 55.95422 -3.36010 110 ft 47 kts 58°
2026-04-24 22:31 55.95546 -3.35644 113 ft 26 kts 62°
2026-04-24 22:31 55.95534 -3.35477 114 ft 8 kts 162°
2026-04-24 22:31 55.95506 -3.35451 114 ft 7 kts 148°
2026-04-24 22:32 55.95445 -3.35413 116 ft 11 kts 190°
2026-04-24 22:32 55.95389 -3.35528 115 ft 15 kts 240°
2026-04-24 22:32 55.95334 -3.35694 114 ft 17 kts 240°
2026-04-24 22:32 55.95252 -3.35940 114 ft 18 kts 240°
2026-04-24 22:33 55.95184 -3.36137 114 ft 19 kts 240°
2026-04-24 22:33 55.95151 -3.36235 112 ft 13 kts 239°
2026-04-24 22:33 55.95101 -3.36373 114 ft 13 kts 224°
2026-04-24 22:33 55.95035 -3.36393 116 ft 10 kts 186°
2026-04-24 22:34 55.94986 -3.36473 113 ft 10 kts 238°
2026-04-24 22:34 55.94952 -3.36578 115 ft 9 kts 239°
2026-04-24 22:34 55.94909 -3.36579 113 ft 7 kts 147°
2026-04-24 22:34 55.94879 -3.36547 113 ft 0 kts 150°
2026-04-24 22:35 55.94876 -3.36544 114 ft 0 kts 150°